This demonstration page uses our WeatherBlox Daily Observations layout. Learn more.

Left ArrowRight Arrow

47.50024, -111.30081

Hourly Observations for January 4, 2020

Temp ( °F °C ) Dew Point ( °F °C ) Humidity (%) Winds ( mph kmh ) Pressure ( in mb ) Visibility ( mi km ) Precip ( " mm )
12:53 am 00:53 Clear 43 6.1 21 -6.1 42 42 S 21 33 29.91 1013 10 16 0.00 0.00
1:53 am 01:53 Clear 43 6.1 19 -7.2 38 38 SSW 22 35 29.87 1012 10 16 0.00 0.00
2:53 am 02:53 Clear 43 6.1 19 -7.2 38 38 SSW 13 20 29.85 1011 10 16 0.00 0.00
3:53 am 03:53 Clear 43 6.1 19 -7.2 38 38 SSW 23 37 29.79 1009 10 16 0.00 0.00
4:53 am 04:53 Clear 45 7.2 18 -7.8 34 34 SSW 25 41 29.74 1007 10 16 0.00 0.00
5:53 am 05:53 Clear 43 6.1 19 -7.2 38 38 SSW 22 35 29.73 1007 10 16 0.00 0.00
6:53 am 06:53 Clear 39 3.9 18 -7.8 43 43 SSW 15 24 29.71 1006 10 16 0.00 0.00
7:53 am 07:53 Clear 42 5.6 18 -7.8 38 38 SSW 14 22 29.68 1005 10 16 0.00 0.00
8:53 am 08:53 Sunny 45 7.2 17 -8.3 33 33 SW 25 41 29.67 1005 10 16 0.00 0.00
9:53 am 09:53 Sunny 49 9.4 18 -7.8 29 29 SW 33 54 29.67 1005 10 16 0.00 0.00
10:53 am 10:53 Sunny 50 10 23 -5 35 35 WSW 28 44 29.69 1005 10 16 0.00 0.00
11:53 am 11:53 Sunny 49 9.4 24 -4.4 38 38 WSW 37 59 29.69 1006 10 16 0.00 0.00
12:53 pm 12:53 Partly Cloudy 46 7.8 25 -3.9 44 44 WSW 29 46 29.73 1007 10 16 0.00 0.00
1:53 pm 13:53 Mostly Sunny 42 5.6 25 -3.9 51 51 W 29 46 29.77 1008 10 16 0.00 0.00
2:53 pm 14:53 Sunny 41 5 18 -7.8 39 39 W 41 67 29.83 1010 10 16 0.00 0.00
3:53 pm 15:53 Sunny 39 3.9 8 -13.3 28 28 WSW 40 65 29.89 1012 10 16 0.00 0.00
4:53 pm 16:53 Clear 35 1.7 9 -12.8 34 34 WSW 31 50 29.98 1015 10 16 0.00 0.00
5:53 pm 17:53 Clear 33 0.6 9 -12.8 36 36 WSW 32 52 30.05 1018 10 16 0.00 0.00
6:53 pm 18:53 Clear 31 -0.6 11 -11.7 43 43 WSW 22 35 30.13 1020 10 16 0.00 0.00
7:53 pm 19:53 Clear 29 -1.7 12 -11.1 49 49 WSW 16 26 30.19 1022 10 16 0.00 0.00
8:53 pm 20:53 Clear 31 -0.6 12 -11.1 45 45 WSW 22 35 30.20 1023 10 16 0.00 0.00
9:53 pm 21:53 Clear 30 -1.1 12 -11.1 47 47 WSW 22 35 30.23 1024 10 16 0.00 0.00
10:53 pm 22:53 Clear 28 -2.2 11 -11.7 49 49 WSW 16 26 30.27 1025 10 16 0.00 0.00
11:53 pm 23:53 Clear 26 -3.3 11 -11.7 53 53 SW 13 20 30.30 1026 10 16 0.00 0.00

Powered by AerisWeather